Probability
15 15 19 18 13 10 8 4 2 3 4 5 3 1 2 2 2 2 5 9 10 10 8 6 4 3 3 4 6 7 7 6 5 2 1 1 2 1 0 1 2 3 3
18 19 22 21 16 12 11 8 5 4 5 5 4 2 1 1 1 2 4 7 9 9 8 6 4 3 4 4 5 7 8 7 5 3 1 1 1 0 0 2 2 2 3
19 19 22 23 19 16 15 12 9 6 5 5 5 4 2 1 2 3 3 5 7 8 8 6 3 3 5 6 5 6 8 8 6 4 3 1 0 0 1 2 2 3 3
17 18 20 21 20 17 16 15 12 9 5 3 4 4 3 3 3 3 3 4 6 7 7 6 4 4 5 5 5 5 7 7 6 5 4 2 1 1 2 2 2 2 3
18 19 20 20 18 15 15 16 15 11 6 4 4 4 4 4 4 2 2 2 3 5 7 7 6 5 4 4 3 3 3 3 3 4 4 3 2 2 4 4 3 2 2
20 20 22 21 16 12 12 14 15 12 8 6 6 4 5 6 5 3 2 2 1 3 6 8 9 7 4 3 2 1 0 0 1 1 2 3 3 3 4 4 4 2 1
20 20 22 23 18 11 9 11 12 11 9 8 8 8 7 7 6 5 4 3 2 3 5 8 10 8 6 4 3 1 0 0 0 0 1 2 3 4 5 5 5 3 1
20 20 21 23 20 14 12 12 12 11 10 9 10 12 11 9 8 8 6 4 4 4 6 7 9 8 7 5 4 2 0 0 0 0 1 2 5 9 9 7 6 5 3
20 20 19 18 17 15 16 16 13 11 11 10 11 13 14 13 12 11 9 7 5 5 5 5 6 7 6 5 4 2 1 0 0 1 2 4 9 12 11 8 6 5 5
17 17 16 14 13 13 15 16 15 13 12 11 9 11 14 13 12 13 12 9 7 6 5 4 4 5 6 6 5 3 2 2 1 1 3 7 12 16 14 12 9 7 6
15 15 15 13 11 11 12 14 15 15 14 12 9 9 10 10 10 11 12 12 11 9 8 5 5 5 6 6 5 4 4 4 2 1 4 10 16 20 18 17 17 14 11
15 14 14 13 11 10 11 14 17 18 17 15 13 12 11 10 10 10 13 16 16 13 11 8 7 7 7 6 5 7 7 5 3 2 5 13 20 22 18 17 20 19 17
17 15 14 14 14 13 13 16 18 19 19 18 18 17 15 13 13 13 16 17 16 14 13 12 11 9 7 6 6 7 7 6 5 6 9 16 23 23 19 16 17 17 17
19 18 17 18 19 18 16 16 18 18 18 19 20 19 16 16 17 16 17 17 15 14 15 15 12 9 8 6 6 5 6 6 8 11 16 22 25 25 22 17 14 13 13
21 20 20 23 24 22 18 17 17 17 17 19 19 17 17 19 20 17 18 19 17 16 16 14 11 9 8 7 6 5 5 7 10 13 18 22 24 23 19 17 15 13 11
21 20 21 24 24 23 20 17 16 17 18 19 20 19 20 22 21 19 20 21 19 16 15 13 10 7 6 6 6 5 6 7 10 12 13 16 18 16 13 14 16 15 13
22 22 20 21 22 23 21 18 15 15 18 20 21 22 22 21 20 18 18 19 18 16 15 14 10 7 7 7 6 5 6 7 8 9 10 12 12 11 11 14 18 17 15
25 24 21 20 23 25 22 18 15 14 17 21 23 23 21 19 17 16 16 17 16 14 14 14 12 8 9 11 9 6 6 7 7 7 8 10 11 11 12 15 17 17 15
26 26 23 22 23 24 22 19 16 16 17 21 24 23 21 19 16 15 15 15 14 12 11 13 13 11 10 11 10 7 7 8 8 6 7 8 11 12 12 13 15 15 16
25 26 25 24 23 22 21 20 19 19 19 21 22 22 21 19 15 14 14 14 13 13 12 12 12 11 10 10 7 6 6 8 8 7 6 7 10 12 12 12 13 15 15
26 25 25 25 25 24 23 23 24 22 21 21 21 21 21 19 16 14 13 13 13 14 14 13 11 9 8 8 6 4 4 6 6 6 6 7 8 10 12 12 12 14 15
27 26 26 28 28 27 25 25 25 23 21 21 21 21 20 18 17 16 13 13 14 14 13 12 10 9 7 6 5 5 4 5 6 6 7 7 7 9 10 10 10 13 15
25 25 26 28 29 28 25 23 22 21 20 19 20 21 20 18 17 17 15 14 13 13 12 12 11 10 8 6 6 6 6 6 7 7 7 6 7 10 10 8 8 12 14
21 22 25 28 29 26 23 21 20 20 20 20 21 22 21 18 17 16 15 14 12 12 12 11 10 10 9 9 9 8 6 6 7 6 4 4 6 8 9 7 7 10 12
16 20 26 30 31 27 23 23 24 22 21 20 21 21 20 18 16 14 14 14 12 11 10 10 9 9 10 10 10 8 6 5 5 5 3 2 2 5 6 7 8 9 10
14 19 26 31 32 29 26 26 28 26 22 20 20 19 18 16 14 13 13 13 12 11 10 9 9 9 11 11 9 9 7 5 4 4 3 1 1 3 5 7 9 11 11
Wind_Speed
14 14 14 13 11 9 9 8 8 8 7 7 7 7 8 8 8 8 8 8 8 8 8 8 8 7 7 7 8 9 9 8 9 10 11 12 12 12 11 11 11 10 14
15 14 15 13 11 9 8 8 8 8 7 7 7 7 7 7 7 7 7 7 7 7 7 7 7 7 7 6 7 7 7 7 7 8 10 10 10 10 10 10 10 9 14
15 13 13 12 11 10 8 8 8 7 7 7 6 6 6 7 6 6 6 6 6 6 7 6 6 6 6 5 5 5 5 6 6 6 7 7 9 9 9 11 12 13 13
14 12 12 13 11 10 9 7 8 7 7 7 6 6 6 6 6 6 6 5 6 6 6 6 5 5 5 4 4 4 4 4 4 4 4 5 7 10 10 11 11 11 11
12 13 13 12 11 10 9 7 7 7 7 6 6 6 5 6 6 5 5 6 6 6 6 5 5 5 4 3 3 3 3 3 3 4 2 4 6 11 11 11 11 11 10
13 13 13 12 11 9 8 8 7 7 6 6 6 5 5 5 5 5 5 5 6 5 5 5 4 4 4 3 2 2 3 3 4 3 2 4 6 11 12 11 11 10 10
12 13 13 12 11 9 8 7 7 6 6 5 5 5 5 4 4 4 4 5 5 5 5 4 4 4 4 3 3 3 4 5 5 3 3 5 7 12 12 11 10 10 9
11 12 12 12 11 9 8 7 6 6 5 5 5 5 5 4 4 4 4 4 4 5 5 4 4 4 4 4 4 4 5 7 5 4 3 5 9 12 12 11 10 9 9
10 11 11 10 10 10 8 7 7 6 6 6 6 5 5 4 5 5 5 5 5 5 5 5 5 5 5 5 5 5 6 7 6 3 3 5 10 12 12 11 10 9 9
8 9 11 10 9 8 8 9 9 7 7 7 7 7 6 5 5 6 6 7 6 6 6 6 6 6 5 5 6 6 6 6 6 4 2 6 11 12 12 11 10 10 9
6 6 8 8 7 7 7 8 8 8 7 7 7 8 7 4 5 5 7 8 8 7 7 7 7 7 6 7 8 8 7 5 5 3 3 8 10 11 11 10 10 10 9
6 5 6 7 5 4 4 5 4 5 5 5 4 5 4 2 3 4 6 8 8 8 8 9 8 8 7 5 7 9 5 7 5 3 6 13 12 11 11 10 10 10 10
6 4 5 6 5 4 3 3 2 2 3 3 3 3 2 2 1 1 2 4 4 6 5 5 6 5 5 4 3 5 6 4 3 3 6 13 12 12 11 10 10 10 10
6 5 5 5 4 3 2 1 2 1 2 2 3 2 2 1 1 1 1 1 2 2 2 3 3 3 3 3 3 3 4 2 1 2 5 11 11 11 11 11 11 10 10
6 5 5 5 4 3 2 0 1 1 1 1 2 2 2 1 1 1 1 1 1 1 1 1 2 1 2 2 2 3 2 1 1 2 3 10 11 10 11 12 12 11 11
6 5 5 5 5 4 2 1 1 1 2 2 2 2 2 1 1 0 0 1 1 1 1 1 2 1 2 1 2 2 2 2 1 2 3 6 10 11 11 12 12 12 12
6 5 4 5 6 4 2 1 1 1 2 1 2 2 2 2 1 1 1 1 1 1 2 2 2 1 2 2 2 2 2 2 1 1 2 3 6 10 12 12 12 12 12
6 6 4 4 6 4 2 1 1 1 2 2 1 2 2 2 1 1 1 1 1 1 1 1 1 1 2 2 2 2 2 2 3 3 3 3 4 5 9 12 13 13 13
6 6 4 4 5 4 3 2 1 1 1 1 1 2 2 1 1 1 1 1 1 1 1 2 1 1 1 1 2 3 2 2 3 4 4 4 4 4 5 10 14 14 14
7 6 5 4 4 3 2 2 1 1 1 1 1 2 2 1 1 1 1 0 1 1 1 1 1 1 1 2 3 3 3 3 3 3 4 4 4 5 5 6 7 9 15
7 6 5 4 3 2 2 2 2 2 1 1 2 2 2 1 1 1 1 0 1 1 1 1 1 2 2 1 2 2 3 4 4 3 3 2 3 4 4 5 5 5 7
7 6 5 4 3 3 2 2 2 2 1 1 1 1 1 1 1 2 1 1 1 1 2 2 1 2 2 1 1 2 2 2 2 3 2 3 2 2 2 5 4 5 4
6 5 4 4 3 2 2 2 1 1 1 1 1 1 0 1 2 1 1 1 1 1 2 2 2 2 2 2 1 1 1 1 2 1 2 2 2 2 2 2 3 4 4
5 6 5 4 3 2 2 2 2 2 1 1 1 1 1 2 2 2 2 1 1 1 1 1 0 1 2 2 1 1 2 1 1 2 2 2 2 2 3 3 3 2 3
4 5 5 4 3 2 2 2 2 1 1 1 1 1 1 1 2 2 1 1 1 1 1 1 1 1 1 2 2 1 1 2 2 2 3 2 2 2 2 3 2 2 2
4 4 5 5 3 2 2 2 2 1 1 1 1 2 2 1 2 2 1 1 1 1 1 1 1 1 1 1 2 2 1 1 1 2 2 3 2 2 2 2 2 2 2
Wind_Direction
109 114 116 111 106 104 104 107 109 107 104 101 100 98 95 96 96 95 96 100 105 109 114 114 110 106 103 100 101 100 100 103 102 106 110 113 113 115 118 122 124 117 118
110 115 117 114 111 110 108 110 114 113 111 108 108 108 106 105 106 105 104 108 109 111 114 113 108 108 107 105 105 108 110 113 114 118 121 122 123 122 121 123 118 123 126
110 119 119 116 114 112 112 112 116 117 116 114 114 115 114 114 115 113 110 110 111 113 113 111 110 109 108 103 103 109 119 127 130 140 140 135 130 131 126 122 121 128 129
117 124 120 122 117 114 112 111 115 119 119 116 118 119 120 121 123 123 123 119 116 117 116 115 113 112 111 111 117 127 137 148 160 174 179 152 139 139 137 131 130 133 134
116 118 121 125 121 118 115 114 118 120 120 119 119 123 124 124 127 131 132 129 130 131 131 132 130 125 120 118 128 149 169 182 199 218 198 139 130 144 145 139 139 139 140
117 121 124 125 124 122 121 120 121 123 124 126 126 126 124 127 130 134 138 142 143 141 139 139 137 133 131 141 151 179 217 220 230 216 197 143 135 148 149 148 147 146 148
120 125 129 131 134 132 132 130 129 131 134 134 133 133 135 135 138 143 145 146 149 153 153 155 155 154 156 176 194 217 240 243 242 233 188 151 144 151 150 151 153 154 156
121 122 130 136 136 137 135 138 139 140 143 145 143 147 151 156 158 158 156 156 162 169 169 171 177 180 178 191 206 223 245 256 241 226 179 140 147 152 155 157 157 159 161
118 126 137 142 143 145 144 151 150 150 153 158 162 166 168 172 178 178 173 167 171 176 182 190 195 195 196 202 214 226 242 256 266 243 205 147 152 156 159 161 163 164 166
122 137 144 146 149 157 159 162 163 164 169 173 177 178 180 185 189 189 187 179 181 184 188 198 203 205 208 215 223 229 243 260 247 231 183 153 157 157 161 166 171 172 170
119 133 134 141 152 158 159 160 167 175 180 184 185 186 193 197 192 190 190 185 191 194 199 208 209 211 210 219 226 228 237 240 233 198 153 155 161 161 164 167 173 177 180
132 137 133 135 131 139 148 149 175 176 171 192 179 174 192 202 206 191 177 187 193 201 209 214 216 215 220 218 216 219 229 232 233 184 158 161 168 169 170 173 178 184 189
136 133 126 126 128 132 133 150 156 166 163 189 166 173 188 194 196 151 151 170 189 206 211 203 212 218 218 221 208 205 221 232 212 172 158 164 171 175 178 182 189 193 197
136 133 128 121 119 106 101 130 163 147 159 168 154 165 173 188 179 141 171 170 190 202 207 203 215 224 229 233 228 228 222 230 190 145 162 167 175 181 186 190 197 198 200
131 136 126 118 119 120 114 180 120 137 151 152 147 161 163 178 148 153 175 173 208 209 198 242 225 245 262 245 240 242 261 256 187 176 161 174 182 188 194 200 202 202 203
137 135 132 128 126 119 127 147 149 172 147 145 136 124 124 112 97 63 192 189 216 218 190 238 238 233 257 263 266 261 251 255 209 181 177 184 191 194 197 201 203 206 209
133 132 140 144 131 136 149 179 175 169 122 106 108 103 99 102 106 145 240 223 223 229 213 212 239 227 248 255 258 260 249 247 241 214 204 188 195 202 205 207 207 210 213
132 133 144 150 138 143 143 164 189 126 111 121 125 116 106 105 130 202 207 222 242 236 218 213 212 234 251 259 263 265 257 232 213 225 222 210 197 200 206 210 212 213 216
127 128 125 120 128 137 142 159 155 112 106 125 124 120 124 145 177 221 203 196 251 241 224 247 180 236 262 267 263 246 241 234 224 227 222 224 209 199 196 204 210 212 216
126 126 126 126 126 137 147 146 143 131 133 132 129 126 136 168 179 229 235 193 265 262 246 255 242 241 248 249 266 264 243 237 232 224 226 225 209 203 205 200 201 212 216
130 129 128 131 135 147 158 168 162 162 164 157 150 124 137 168 189 223 276 250 239 245 256 264 261 256 253 248 276 282 258 234 226 220 222 233 217 210 205 196 197 203 211
138 139 138 142 147 163 162 160 155 150 171 147 107 131 156 186 219 221 200 236 241 244 242 239 240 248 262 256 276 295 277 254 238 222 196 211 220 222 227 219 208 211 212
141 143 143 143 146 151 135 137 136 130 130 142 152 142 168 225 221 231 204 237 262 260 245 229 230 250 277 273 230 236 274 286 311 248 217 216 208 204 217 236 220 214 209
142 141 133 130 133 127 138 159 169 170 179 184 199 175 191 235 230 231 227 224 222 256 277 258 203 264 271 279 272 238 238 267 290 305 289 256 232 222 220 237 242 226 211
136 140 133 125 130 140 162 154 177 180 173 180 185 200 210 237 237 222 219 216 219 240 250 284 295 269 273 282 292 290 278 267 243 256 281 281 272 247 222 224 224 216 212
119 119 125 127 135 147 155 160 176 178 174 227 252 243 232 226 239 221 202 199 223 228 232 237 244 248 255 293 299 305 296 285 279 254 268 279 273 267 249 224 209 206 214